Change the Weather History Date:

Saturday, April 12, 2014

  Actual Average Record
Temperature  
Mean Temperature 48 °F 43 °F  
Max Temperature 55 °F 55 °F 82 °F (1931)
Min Temperature 41 °F 31 °F 13 °F (1950)
Degree Days  
Heating Degree Days 17 22  
Month to date heating degree days 286 300  
Since 1 July heating degree days 8802 7850  
Cooling Degree Days 0 0  
Month to date cooling degree days 0 0  
Year to date cooling degree days 0 0  
Moisture  
Dew Point 38 °F    
Average Humidity 67    
Maximum Humidity 89    
Minimum Humidity 44    
Precipitation  
Precipitation 0.16 in 0.08 in 0.90 in (1897)
Month to date precipitation 0.57 0.88  
Year to date precipitation 4.28 3.67  
Snow  
Snow 0.00 in 0.10 in 3.40 in (1991)
Month to date snowfall 3.5 1.6  
Since 1 July snowfall 67.0 44.3  
Snow Depth 0.00 in    
Sea Level Pressure  
Sea Level Pressure 29.81 in    
Wind  
Wind Speed 11 mph (ENE)    
Max Wind Speed 21 mph    
Max Gust Speed 29 mph    
Visibility 10 miles    
Events Rain    
T = Trace of Precipitation, MM = Missing Value Source: NWS Daily Summary

Daily Weather History Graph

Daily Weather History Graph

Search for Another Location

Airport or City:

Trip Planner

Search our weather history database for the weather conditions in past years. The results will help you decide how hot, cold, wet, or windy it might be!

Date:

Astronomy

Apr. 12, 2014 Rise Set
Actual Time 6:36 AM CDT 7:58 PM CDT
Civil Twilight 6:05 AM CDT 8:29 PM CDT
Nautical Twilight 5:28 AM CDT 9:06 PM CDT
Astronomical Twilight 4:48 AM CDT 9:46 PM CDT
Moon 5:31 PM CDT (4/12) 5:11 AM CDT (4/12)
Length of Visible Light 14h 24m
Length of Day
13h 22m
Waxing Gibbous, 93% of the Moon is Illuminated
Apr 12
Waxing Gibbous
Apr 15
Full
Apr 22
Last Quarter
Apr 29
New
May 6
First Quarter

Hourly Weather History & Observations

Time (CDT) Temp. Windchill Dew Point Humidity Pressure Visibility Wind Dir Wind Speed Gust Speed Precip Events Conditions
12:53 AM 51.1 °F - 30.0 °F 44% 29.91 in 10.0 mi ENE 9.2 mph - N/A   Overcast
1:53 AM 51.1 °F - 30.9 °F 46% 29.95 in 10.0 mi NE 11.5 mph - N/A   Overcast
2:53 AM 50.0 °F - 34.0 °F 54% 29.92 in 10.0 mi NE 10.4 mph - 0.00 in Rain Light Rain
3:53 AM 50.0 °F - 34.0 °F 54% 29.91 in 10.0 mi ENE 8.1 mph - 0.00 in   Overcast
4:53 AM 46.9 °F - 33.1 °F 59% 29.88 in 10.0 mi ENE 10.4 mph - N/A   Overcast
5:53 AM 44.1 °F 38.6 °F 37.9 °F 79% 29.89 in 6.0 mi ENE 10.4 mph 19.6 mph 0.04 in Rain Rain
6:53 AM 43.0 °F 36.4 °F 39.9 °F 89% 29.84 in 5.0 mi ENE 12.7 mph 25.3 mph 0.10 in Rain Light Rain
7:53 AM 44.1 °F 37.4 °F 39.9 °F 85% 29.83 in 8.0 mi East 13.8 mph 23.0 mph 0.02 in Rain Light Rain
8:53 AM 45.0 °F 37.6 °F 39.9 °F 82% 29.81 in 10.0 mi East 17.3 mph 24.2 mph 0.00 in   Overcast
9:53 AM 46.9 °F - 41.0 °F 80% 29.80 in 10.0 mi East 12.7 mph 20.7 mph N/A   Clear
10:53 AM 48.9 °F - 39.9 °F 71% 29.78 in 10.0 mi East 11.5 mph 25.3 mph N/A   Partly Cloudy
11:37 AM 50.0 °F - 41.0 °F 71% 29.74 in 10.0 mi ENE 16.1 mph 21.9 mph N/A   Mostly Cloudy
11:53 AM 52.0 °F - 41.0 °F 66% 29.78 in 10.0 mi East 15.0 mph 19.6 mph N/A   Mostly Cloudy
12:53 PM 52.0 °F - 41.0 °F 66% 29.78 in 10.0 mi East 12.7 mph - N/A   Mostly Cloudy
1:53 PM 53.1 °F - 41.0 °F 64% 29.77 in 10.0 mi East 9.2 mph - N/A   Overcast
2:53 PM 53.1 °F - 41.0 °F 64% 29.77 in 10.0 mi ENE 8.1 mph 18.4 mph N/A   Overcast
3:53 PM 53.1 °F - 41.0 °F 64% 29.77 in 10.0 mi ENE 13.8 mph 18.4 mph N/A   Overcast
4:31 PM 53.6 °F - 41.0 °F 62% 29.72 in 10.0 mi ENE 8.1 mph 17.3 mph N/A   Scattered Clouds
4:53 PM 53.1 °F - 41.0 °F 64% 29.76 in 10.0 mi ENE 11.5 mph 18.4 mph N/A   Partly Cloudy
5:53 PM 52.0 °F - 41.0 °F 66% 29.77 in 10.0 mi East 10.4 mph - N/A   Partly Cloudy
6:53 PM 51.1 °F - 41.0 °F 68% 29.77 in 10.0 mi East 8.1 mph - N/A   Scattered Clouds
7:03 PM 50.0 °F - 41.0 °F 71% 29.73 in 10.0 mi East 6.9 mph - N/A   Mostly Cloudy
7:53 PM 50.0 °F - 39.9 °F 68% 29.79 in 10.0 mi NE 5.8 mph - N/A   Overcast
8:53 PM 45.0 °F 39.7 °F 37.9 °F 76% 29.82 in 10.0 mi NE 10.4 mph - N/A   Overcast
9:53 PM 44.1 °F 39.5 °F 37.0 °F 76% 29.81 in 10.0 mi NE 8.1 mph - N/A   Overcast
10:53 PM 43.0 °F 37.2 °F 36.0 °F 76% 29.79 in 10.0 mi NE 10.4 mph - N/A   Overcast
11:53 PM 42.1 °F 38.4 °F 35.1 °F 76% 29.81 in 10.0 mi ENE 5.8 mph - N/A   Overcast